When you browse on this site, cookies collect data to enhance your experience and personalize the content and advertising you see.
Visit our Privacy Policy to learn more. By continuing to use the site, you agree to this use of cookies and data.
  • în România
  • Lista ţărilor
  • Pe 7 zile
  • Temperatura apei
  • Meteo pe hartă
  • Widget-uri
  • user-avatar
    Intrare

    Meteo pe oră la Berat

    Astăzi, 20 Septembrie, Vineri

    Timp Temperatura Precipitaţii Vânt Presiune Umiditate
    00:00 +22°C° 1.5 mm 1 m/s 745 mmHg 85%
    01:00 +21°C° 1.5 mm 1 m/s 745 mmHg 89%
    02:00 +21°C° 1 mm 1 m/s 745 mmHg 88%
    03:00 +21°C° 1 mm 1 m/s 745 mmHg 87%
    04:00 +21°C° 1 mm 1 m/s 745 mmHg 86%
    05:00 +20°C° 0.3 mm 2 m/s 745 mmHg 84%
    06:00 +20°C° 0.3 mm 2 m/s 746 mmHg 82%
    07:00 +20°C° 0.3 mm 2 m/s 746 mmHg 80%
    08:00 +20°C° 0.1 mm 2 m/s 746 mmHg 75%
    09:00 +21°C° 0.1 mm 3 m/s 746 mmHg 71%
    10:00 +21°C° 0.1 mm 3 m/s 746 mmHg 66%
    11:00 +22°C° 0 mm 3 m/s 746 mmHg 61%
    12:00 +25°C° 0 mm 3 m/s 746 mmHg 56%
    13:00 +26°C° 0 mm 3 m/s 746 mmHg 51%
    14:00 +26°C° 0 mm 3 m/s 746 mmHg 50%
    15:00 +25°C° 0 mm 3 m/s 746 mmHg 48%
    16:00 +25°C° 0 mm 3 m/s 746 mmHg 47%
    17:00 +24°C° 0 mm 2 m/s 746 mmHg 50%
    18:00 +21°C° 0 mm 2 m/s 746 mmHg 52%
    19:00 +20°C° 0 mm 2 m/s 747 mmHg 54%
    20:00 +19°C° 0 mm 2 m/s 747 mmHg 54%
    21:00 +19°C° 0 mm 2 m/s 747 mmHg 53%
    22:00 +18°C° 0 mm 2 m/s 748 mmHg 53%
    23:00 +18°C° 0 mm 2 m/s 748 mmHg 51%

    Mâine, 21 Septembrie, Sâmbătă

    Timp Temperatura Precipitaţii Vânt Presiune Umiditate
    00:00 +17°C° 0 mm 2 m/s 748 mmHg 50%
    01:00 +17°C° 0 mm 2 m/s 748 mmHg 48%
    02:00 +16°C° 0 mm 2 m/s 748 mmHg 47%
    03:00 +16°C° 0 mm 2 m/s 748 mmHg 45%
    04:00 +16°C° 0 mm 2 m/s 748 mmHg 44%
    05:00 +16°C° 0 mm 2 m/s 749 mmHg 43%
    06:00 +17°C° 0 mm 2 m/s 749 mmHg 42%
    07:00 +18°C° 0 mm 2 m/s 749 mmHg 41%
    08:00 +20°C° 0 mm 2 m/s 749 mmHg 38%
    09:00 +23°C° 0 mm 2 m/s 749 mmHg 35%
    10:00 +25°C° 0 mm 1 m/s 750 mmHg 33%
    11:00 +26°C° 0 mm 1 m/s 749 mmHg 33%
    12:00 +27°C° 0 mm 2 m/s 749 mmHg 32%
    13:00 +28°C° 0 mm 2 m/s 749 mmHg 32%
    14:00 +27°C° 0 mm 2 m/s 749 mmHg 34%
    15:00 +27°C° 0 mm 3 m/s 748 mmHg 35%
    16:00 +26°C° 0 mm 3 m/s 748 mmHg 37%
    17:00 +24°C° 0 mm 2 m/s 748 mmHg 42%
    18:00 +22°C° 0 mm 1 m/s 749 mmHg 47%
    19:00 +20°C° 0 mm 1 m/s 749 mmHg 52%
    20:00 +20°C° 0 mm 1 m/s 749 mmHg 52%
    21:00 +20°C° 0 mm 1 m/s 749 mmHg 52%
    22:00 +19°C° 0 mm 1 m/s 749 mmHg 53%
    23:00 +19°C° 0 mm 1 m/s 749 mmHg 54%

    Poimâine, 22 Septembrie, Duminică

    Timp Temperatura Precipitaţii Vânt Presiune Umiditate
    00:00 +19°C° 0 mm 1 m/s 749 mmHg 55%
    01:00 +18°C° 0 mm 1 m/s 748 mmHg 57%
    02:00 +18°C° 0 mm 1 m/s 748 mmHg 58%
    03:00 +18°C° 0 mm 1 m/s 748 mmHg 60%
    04:00 +18°C° 0 mm 1 m/s 748 mmHg 62%
    05:00 +19°C° 0 mm 1 m/s 748 mmHg 60%
    06:00 +20°C° 0 mm 1 m/s 748 mmHg 58%
    07:00 +21°C° 0 mm 1 m/s 748 mmHg 56%
    08:00 +23°C° 0 mm 1 m/s 748 mmHg 50%
    09:00 +25°C° 0 mm 1 m/s 748 mmHg 43%
    10:00 +26°C° 0 mm 2 m/s 748 mmHg 37%
    11:00 +27°C° 0 mm 2 m/s 748 mmHg 36%
    12:00 +28°C° 0 mm 2 m/s 748 mmHg 34%
    13:00 +28°C° 0 mm 3 m/s 748 mmHg 33%
    14:00 +28°C° 0 mm 3 m/s 747 mmHg 37%
    15:00 +27°C° 0 mm 3 m/s 747 mmHg 41%
    16:00 +26°C° 0 mm 2 m/s 746 mmHg 44%
    17:00 +24°C° 0 mm 2 m/s 746 mmHg 52%
    18:00 +23°C° 0 mm 1 m/s 747 mmHg 59%
    19:00 +19°C° 0 mm 0 m/s 747 mmHg 66%
    20:00 +19°C° 0 mm 0 m/s 747 mmHg 66%
    21:00 +19°C° 0 mm 0 m/s 747 mmHg 66%
    22:00 +18°C° 0 mm 0 m/s 747 mmHg 67%
    23:00 +20°C° 0 mm 1 m/s 747 mmHg 66%

    23 Septembrie, Luni

    Timp Temperatura Precipitaţii Vânt Presiune Umiditate
    00:00 +20°C° 0 mm 1 m/s 747 mmHg 66%
    01:00 +20°C° 0 mm 1 m/s 746 mmHg 65%
    02:00 +20°C° 0 mm 1 m/s 746 mmHg 64%
    03:00 +20°C° 0 mm 1 m/s 746 mmHg 62%
    04:00 +21°C° 0 mm 1 m/s 746 mmHg 60%
    05:00 +21°C° 0 mm 1 m/s 746 mmHg 59%
    06:00 +22°C° 0 mm 1 m/s 746 mmHg 59%
    07:00 +22°C° 0 mm 1 m/s 746 mmHg 58%
    08:00 +23°C° 0 mm 1 m/s 746 mmHg 55%
    09:00 +24°C° 0 mm 2 m/s 746 mmHg 52%
    10:00 +25°C° 0 mm 2 m/s 746 mmHg 49%
    11:00 +27°C° 0 mm 2 m/s 745 mmHg 45%
    12:00 +28°C° 0 mm 2 m/s 745 mmHg 41%
    13:00 +30°C° 0 mm 2 m/s 745 mmHg 37%
    14:00 +29°C° 0 mm 2 m/s 744 mmHg 41%
    15:00 +29°C° 0 mm 2 m/s 744 mmHg 44%
    16:00 +28°C° 0 mm 1 m/s 743 mmHg 47%
    17:00 +27°C° 0 mm 2 m/s 743 mmHg 53%
    18:00 +25°C° 0 mm 2 m/s 743 mmHg 58%
    19:00 +24°C° 0 mm 3 m/s 742 mmHg 64%
    20:00 +22°C° 0.1 mm 3 m/s 742 mmHg 67%
    21:00 +22°C° 0.1 mm 3 m/s 742 mmHg 70%
    22:00 +21°C° 0.1 mm 3 m/s 742 mmHg 73%
    23:00 +21°C° 1.3 mm 3 m/s 742 mmHg 76%

    24 Septembrie, Marţi

    Timp Temperatura Precipitaţii Vânt Presiune Umiditate
    00:00 +21°C° 1.3 mm 3 m/s 741 mmHg 80%
    01:00 +20°C° 1.3 mm 3 m/s 741 mmHg 83%
    02:00 +20°C° 1.9 mm 3 m/s 741 mmHg 86%
    03:00 +20°C° 1.9 mm 2 m/s 740 mmHg 88%
    04:00 +20°C° 1.9 mm 2 m/s 740 mmHg 90%
    05:00 +20°C° 0.9 mm 2 m/s 740 mmHg 87%
    06:00 +21°C° 0.9 mm 2 m/s 740 mmHg 85%
    07:00 +23°C° 0.9 mm 1 m/s 739 mmHg 82%
    08:00 +24°C° 0.7 mm 2 m/s 740 mmHg 75%
    09:00 +24°C° 0.7 mm 2 m/s 740 mmHg 68%
    10:00 +25°C° 0.7 mm 3 m/s 740 mmHg 61%
    11:00 +26°C° 0.1 mm 3 m/s 740 mmHg 58%
    12:00 +26°C° 0.1 mm 4 m/s 740 mmHg 55%
    13:00 +26°C° 0.1 mm 4 m/s 739 mmHg 52%
    14:00 +25°C° 0.2 mm 4 m/s 739 mmHg 55%
    15:00 +23°C° 0.2 mm 4 m/s 739 mmHg 59%
    16:00 +22°C° 0.2 mm 4 m/s 739 mmHg 63%
    17:00 +21°C° 0.1 mm 3 m/s 739 mmHg 68%
    18:00 +20°C° 0.1 mm 2 m/s 739 mmHg 74%
    19:00 +20°C° 0.1 mm 1 m/s 740 mmHg 80%
    20:00 +19°C° 0 mm 1 m/s 740 mmHg 81%
    21:00 +17°C° 0 mm 0 m/s 740 mmHg 82%
    22:00 +17°C° 0 mm 0 m/s 740 mmHg 83%
    23:00 +16°C° 0 mm 0 m/s 740 mmHg 84%

    25 Septembrie, Miercuri

    Timp Temperatura Precipitaţii Vânt Presiune Umiditate
    00:00 +18°C° 0 mm 1 m/s 740 mmHg 85%
    01:00 +18°C° 0 mm 1 m/s 740 mmHg 85%
    02:00 +18°C° 0 mm 1 m/s 740 mmHg 84%
    03:00 +18°C° 0 mm 1 m/s 740 mmHg 84%
    04:00 +16°C° 0 mm 1 m/s 740 mmHg 83%
    05:00 +18°C° 0 mm 1 m/s 740 mmHg 79%
    06:00 +19°C° 0 mm 1 m/s 741 mmHg 76%
    07:00 +20°C° 0 mm 1 m/s 741 mmHg 72%
    08:00 +21°C° 0 mm 1 m/s 741 mmHg 64%
    09:00 +23°C° 0 mm 1 m/s 741 mmHg 56%
    10:00 +25°C° 0 mm 1 m/s 742 mmHg 48%
    11:00 +26°C° 0 mm 2 m/s 742 mmHg 46%
    12:00 +26°C° 0 mm 2 m/s 741 mmHg 44%
    13:00 +27°C° 0 mm 3 m/s 741 mmHg 42%
    14:00 +27°C° 0 mm 3 m/s 741 mmHg 46%
    15:00 +26°C° 0 mm 3 m/s 741 mmHg 49%
    16:00 +25°C° 0 mm 3 m/s 741 mmHg 52%
    17:00 +24°C° 0 mm 2 m/s 741 mmHg 60%
    18:00 +22°C° 0 mm 1 m/s 742 mmHg 67%
    19:00 +19°C° 0 mm 0 m/s 742 mmHg 74%
    20:00 +20°C° 0 mm 1 m/s 742 mmHg 74%
    21:00 +20°C° 0 mm 1 m/s 742 mmHg 74%
    22:00 +20°C° 0 mm 1 m/s 743 mmHg 73%
    23:00 +20°C° 0 mm 1 m/s 743 mmHg 73%
    Arată mai mult